User: anonymous   Login
Location: Huntington Beach
(33.6600°N, 117.9980°W)
Time: 12:09:34
(UTC-07:00)
Language:

SL-16 R/B - Orbit

View from above orbital plane
View from above orbital plane
View from above satellite
View from above satellite

Ground track
Ground track

The orbit data is extracted from the following two-line orbital elements,

1 28353U 04021B   15214.02367034  .00000092  00000-0  73267-4 0  9996
2 28353 071.0000 075.3152 0004969 182.1132 177.9970 14.14152771575291
Epoch (UTC): 02 August 2015 00:34:05
Eccentricity: 0.0004969
inclination: 71.0000°
perigee height: 841 km
apogee height: 849 km
right ascension of ascending node: 75.3152°
argument of perigee: 182.1132°
revolutions per day: 14.14152771
mean anomaly at epoch: 177.9970°
orbit number at epoch: 57529

The dashed part of the orbit path shows where the satellite is in the earth's shadow,  

DLR